Time,TemperatureF,DewpointF,PressureIn,WindDirection,WindDirectionDegrees,WindSpeedMPH,WindSpeedGustMPH,Humidity,HourlyPrecipIn,Conditions,Clouds,dailyrainin,SoftwareType,DateUTC
2013-03-16 09:30:00,24.1,21.3,29.82,NE,44,3.0,9.0,89,0.00,,,0.00,Wunderground v.1.15,2013-03-16 13:30:00,
2013-03-16 10:00:00,24.5,21.7,29.80,NE,44,3.0,3.0,89,0.00,,,0.00,Wunderground v.1.15,2013-03-16 14:00:00,
2013-03-16 10:30:00,24.3,21.5,29.81,NE,45,2.0,2.0,89,0.00,,,0.00,Wunderground v.1.15,2013-03-16 14:30:00,
2013-03-16 11:00:00,25.1,22.3,29.81,NE,45,3.0,9.0,89,0.00,,,0.00,Wunderground v.1.15,2013-03-16 15:00:00,
2013-03-16 11:30:00,25.2,22.1,29.80,NE,44,4.0,4.0,88,0.00,,,0.00,Wunderground v.1.15,2013-03-16 15:30:00,
2013-03-16 12:00:00,25.5,22.4,29.81,NE,43,3.0,9.0,88,0.00,,,0.00,Wunderground v.1.15,2013-03-16 16:00:00,
2013-03-16 12:30:00,25.5,22.2,29.80,NE,43,3.0,9.0,87,0.00,,,0.00,Wunderground v.1.15,2013-03-16 16:30:00,
2013-03-16 13:00:00,25.6,21.7,29.79,NE,47,5.0,9.0,85,0.00,,,0.00,Wunderground v.1.15,2013-03-16 17:00:00,
2013-03-16 13:30:00,26.5,21.7,29.79,NE,45,4.0,9.0,82,0.00,,,0.00,Wunderground v.1.15,2013-03-16 17:30:00,
2013-03-16 14:00:00,27.0,21.9,29.79,NE,39,5.0,5.0,81,0.00,,,0.00,Wunderground v.1.15,2013-03-16 18:00:00,
2013-03-16 14:30:00,26.9,21.6,29.79,NE,40,6.0,6.0,80,0.00,,,0.00,Wunderground v.1.15,2013-03-16 18:30:00,
2013-03-16 15:00:00,26.8,21.2,29.79,NNE,27,5.0,9.0,79,0.00,,,0.00,Wunderground v.1.15,2013-03-16 19:00:00,
2013-03-16 15:30:00,26.5,21.5,29.79,NNE,26,5.0,9.0,81,0.00,,,0.00,Wunderground v.1.15,2013-03-16 19:30:00,
2013-03-16 16:00:00,26.2,22.3,29.79,NNE,22,5.0,5.0,85,0.00,,,0.00,Wunderground v.1.15,2013-03-16 20:00:00,
2013-03-16 16:30:00,25.9,22.8,29.80,NE,41,4.0,9.0,88,0.00,,,0.00,Wunderground v.1.15,2013-03-16 20:30:00,
2013-03-16 17:00:00,25.5,22.7,29.81,NE,38,4.0,9.0,89,0.00,,,0.00,Wunderground v.1.15,2013-03-16 21:00:00,
2013-03-16 17:30:00,25.3,22.5,29.83,NE,34,4.0,4.0,89,0.00,,,0.00,Wunderground v.1.15,2013-03-16 21:30:00,
2013-03-16 18:00:00,24.9,22.1,29.83,NNE,32,4.0,4.0,89,0.00,,,0.00,Wunderground v.1.15,2013-03-16 22:00:00,
2013-03-16 18:30:00,24.7,21.9,29.85,NNE,30,5.0,5.0,89,0.00,,,0.00,Wunderground v.1.15,2013-03-16 22:30:00,
2013-03-16 19:00:00,24.2,21.2,29.86,NNE,28,6.0,6.0,88,0.00,,,0.00,Wunderground v.1.15,2013-03-16 23:00:00,
2013-03-16 19:30:00,23.9,21.1,29.87,NNE,27,5.0,9.0,89,0.00,,,0.00,Wunderground v.1.15,2013-03-16 23:30:00,
2013-03-16 20:00:00,23.6,20.6,29.89,NNE,18,6.0,6.0,88,0.00,,,0.00,Wunderground v.1.15,2013-03-17 00:00:00,
2013-03-16 20:30:00,23.6,20.6,29.91,NNE,18,4.0,4.0,88,0.00,,,0.00,Wunderground v.1.15,2013-03-17 00:30:00,
2013-03-16 21:00:00,23.6,20.3,29.92,NNE,18,3.0,9.0,87,0.00,,,0.00,Wunderground v.1.15,2013-03-17 01:00:00,
2013-03-16 21:30:00,23.3,19.7,29.93,NNE,18,2.0,9.0,86,0.00,,,0.00,Wunderground v.1.15,2013-03-17 01:30:00,
2013-03-16 22:00:00,22.7,18.9,29.94,NNE,18,2.0,2.0,85,0.00,,,0.00,Wunderground v.1.15,2013-03-17 02:00:00,
2013-03-16 22:30:00,22.2,18.7,29.94,NNE,12,1.0,9.0,86,0.00,,,0.00,Wunderground v.1.15,2013-03-17 02:30:00,
2013-03-16 23:00:00,21.8,18.0,29.95,NNW,334,2.0,9.0,85,0.00,,,0.00,Wunderground v.1.15,2013-03-17 03:00:00,
2013-03-16 23:30:00,22.0,18.2,29.94,WNW,284,3.0,3.0,85,0.00,,,0.00,Wunderground v.1.15,2013-03-17 03:30:00,